Location: Bannatyne
(13.0833°N, 59.5333°W)
Time: 14:42:08
(UTC+00:00)

deb Explorer IX - Pass Details

Date: 02 February 2020
Orbit: 549 x 1099 km, 38.8° (Epoch: 23 February)

Event Time Altitude Azimuth Distance (km) Brightness Sun altitude
Rises 19:38:48 0° 230° (SW) 2,844 ? 30.8°
Reaches altitude 10° 19:40:58 10° 230° (SW) 1,998 ? 30.3°
Maximum altitude 19:45:36 90° 128° (SE) 696 ? 29.3°
Drops below altitude 10° 19:51:02 10° 51° (NE) 2,332 ? 28.2°
Sets 19:53:43 0° 51° (NE) 3,360 ? 27.6°
